Simultaneous Nadir Overpasses (SNOs) Predictions

Prediction of SNOs between GOES-15 and LANDSAT-8 Satellite Orbit:

Table of predicted SNOs for the next 14.0 days since TLE Epoch: 2/13/2025
Index Date Time (GOES-15) GOES-15 Lat,Lon LANDSAT-8 Lat,Lon Distance(km) Time Diff (sec)
1 02/14/2025 17:53:31 0.00, 61.46 0.61, 64.26 318.14 80
2 02/15/2025 06:14:46 -0.01, 61.50 0.52, 59.11 271.90 80
3 02/17/2025 06:05:15 -0.01, 61.48 -0.15, 62.06 66.32 80
4 02/19/2025 05:53:03 -0.01, 61.46 -0.78, 65.01 404.05 80
5 02/19/2025 18:14:27 0.01, 61.42 -0.32, 59.82 181.23 80
6 02/21/2025 17:59:35 0.01, 61.41 0.33, 62.78 155.58 80
7 02/22/2025 06:20:50 -0.02, 61.46 0.78, 57.62 436.51 80
8 02/23/2025 17:47:22 0.02, 61.42 0.95, 65.74 491.87 80
9 02/24/2025 06:08:37 -0.02, 61.47 0.16, 60.59 100.10 80
10 02/26/2025 05:59:04 -0.02, 61.47 -0.48, 63.54 236.10 80
11 02/26/2025 18:20:28 0.03, 61.42 -0.60, 58.35 348.04 80
